User: anonymous
Location: Bonn
(50.7330°N, 7.1000°E)
Time: 18:48:36
(UTC+02:00)
Language:

Cosmos 1933 Rocket - Orbit

View from above orbital plane
View from above orbital plane
View from above satellite
View from above satellite

Ground track
Ground track

The orbit data is extracted from the following two-line orbital elements,

1 18959U 88020B   14209.51534831  .00000288  00000-0  32561-4 0  3034
2 18959 082.5390 176.0572 0017136 020.2374 118.7814 14.82825020424254
Epoch (UTC): 28 July 2014 12:22:06
Eccentricity: 0.0017136
inclination: 82.5390°
perigee height: 608 km
apogee height: 632 km
right ascension of ascending node: 176.0572°
argument of perigee: 20.2374°
revolutions per day: 14.82825020
mean anomaly at epoch: 118.7814°
orbit number at epoch: 42425

The dashed part of the orbit path shows where the satellite is in the earth's shadow,  

DLR